Preview of NWS' New Version of Forecast
This preview is not operational and should not be used for support decisions.

Regional Weather Roundup (RWR)

Issued by Gray - Portland, ME (GYX)

                            
000
ASUS41 KGYX 261910
RWRGYX
WEATHER ROUNDUP FOR MAINE AND NEW HAMPSHIRE
NATIONAL WEATHER SERVICE GRAY ME
300 PM EDT TUE MAR 26 2019

MEZ002-005-006-010-012-015-018-020-021-024-026-027-029-262000-
MAINE
  
CITY           SKY/WX    TMP DP  RH WIND       PRES   REMARKS
PORTLAND       FAIR      39   5  24 NW10G16   30.23F                  
SANFORD        FAIR      39   4  23 NW14      30.23S                  
BAR HARBOR     FAIR      33   1  25 N9        30.19F                  
WISCASSET      FAIR      37   1  22 VRB3      30.23F                  
ROCKLAND       FAIR      36   4  26 NW10G16   30.20F                  
FRYEBURG       FAIR      36   2  23 VRB7      30.21F                  
LEWISTONAUBURN FAIR      34   3  27 W8        30.22F                  
AUGUSTA        FAIR      34   2  25 NW9G20    30.21F                  
WATERVILLE     FAIR      35   4  27 NW13G22   30.17F                  
BANGOR         FAIR      33  -2  22 W9G17     30.19F                  
GREENVILLE       N/A     27  -1  30 NW12G24   30.09S WCI  17          
MILLINOCKET    FAIR      30   1  29 W14G24    30.15F WCI  19          
HOULTON        FAIR      28   3  34 SW15      30.10F WCI  16          
PRESQUE ISLE   FAIR      28   4  35 W13       30.09F WCI  17          
FRENCHVILLE    FAIR      25   1  35 W23G31    30.04F WCI  10          
CARIBOU        FAIR      27   2  34 W10G17    30.07F WCI  17          
$$

NHZ002-005-008-009-011-012-014-262000-
NEW HAMPSHIRE
  
CITY           SKY/WX    TMP DP  RH WIND       PRES   REMARKS
PORTSMOUTH     SUNNY     41   0  18 W9        30.22F                  
ROCHESTER      FAIR      39   4  23 NW10G17   30.22F                  
NASHUA         FAIR      41   1  18 NW10G16   30.24F                  
MANCHESTER     FAIR      41  -1  17 NW15      30.23F                  
CONCORD        FAIR      39   4  23 NW16G24   30.24F                  
LACONIA        FAIR      34   3  27 W12G18    30.24                   
PLYMOUTH       FAIR      35   1  24 W7        30.25S                  
BERLIN         FAIR      31   1  28 VRB7G18   30.19F                  
WHITEFIELD     FAIR      32   1  26 NW6G20    30.22F                  
JAFFREY        FAIR      38   4  24 NW8G20    30.20                   
KEENE          FAIR      37  -1  20 NW10G22   30.25F                  
LEBANON        FAIR      38   5  25 NW9       30.26F                  
MT WASHINGTON  SUNNY      1  -9  60 W45G51      N/A  WCI -28          
$$

VTZ005-007-008-262000-
VERMONT
  
CITY           SKY/WX    TMP DP  RH WIND       PRES   REMARKS
ST JOHNSBURY     N/A     33   2  26 MISG      30.24F                  
MONTPELIER     FAIR      28   2  32 NW14      30.30S WCI  17          
BURLINGTON     FAIR      33   4  29 N10       30.32F                  
$$

MAZ007-012-024-CTZ003-RIZ002-NYZ038-NYZ072-262000-
SOUTHERN NEW ENGLAND AND NY
  
CITY           SKY/WX    TMP DP  RH WIND       PRES   REMARKS
BOSTON         FAIR      40  14  34 E14       30.24F                  
WORCESTER      FAIR      38   4  24 W9G21     30.20F                  
NANTUCKET      FAIR      41  16  36 N20       30.21F                  
PROVIDENCE     FAIR      45   3  17 N9G18     30.22F                  
HARTFORD       FAIR      46  -2  13 N15G23    30.24F                  
ALBANY         FAIR      43   3  19 NW10G17   30.30F                  
NEW YORK CITY  FAIR      45   2  17 N13       30.27F                  
$$

ANZ081-ANZ082-ANZ150-NHZ014-MEZ023>029-262000-
COASTAL MARINE OBSERVATIONS
  
STATION/POSITION TIME  TEMP    WIND        PRES    WAVE
                       AIR SEA DIR/SP/G            HT/PER
                 (UTC) (F)     (DEG/KT/KT) (MB)    (FT/S)
MOUNT DESERT ROC 1900   31     300/ 11/ 13 1022.5F
MATINICUS ROCK   1800   33     320/  8/  9 1023.1F
ISLE OF SHOALS   1800   33     100/  8/  9 1023.8F
CASHES LEDGE BUO 1850   35 39              1023.6F   3/ 4
$$

.............KEY..............
   WCI - WIND CHILL
   TC  - TEMPERATURE IN CELSIUS
   VSB - VISIBILITY IN MILES
   HX  - HEAT INDEX
   FAIR- INDICATES FEW OR NO CLOUDS BELOW 12,000 FT, WITH NO 
         SIGNIFICANT WEATHER AND/OR OBSTRUCTIONS TO VISIBILITY.